Stevens Point, WI

11:22 AM CDT on April 19, 2018 (GMT -0500)
Stevens Point Municipal

Weather History for KSTE - March, 2014

Change the Weather History Date:

Tuesday, March 4, 2014

  Actual Average Record
Temperature  
Mean Temperature 9 °F -  
Max Temperature 15 °F 35 °F 59 °F (1974)
Min Temperature 3 °F 17 °F -16 °F (2002)
Degree Days  
Heating Degree Days 56    
Moisture  
Dew Point 3 °F    
Average Humidity 77    
Maximum Humidity 89    
Minimum Humidity 59    
Precipitation  
Precipitation 0.01 in - - ()
Sea Level Pressure  
Sea Level Pressure 30.20 in    
Wind  
Wind Speed 3 mph (SSW)    
Max Wind Speed 8 mph    
Max Gust Speed -    
Visibility 7 miles    
Events Snow    
Averages and records for this station are not official NWS values.
T = Trace of Precipitation, MM = Missing Value Source: NWS Daily Summary

Daily Weather History Graph

Daily Weather History Graph

Search for Another Location

Airport or City:

Astronomy

Mar. 04, 2014 Rise Set
Actual Time 6:30 AM CST 5:50 PM CST
Civil Twilight 6:01 AM CST 6:19 PM CST
Nautical Twilight 5:27 AM CST 6:52 PM CST
Astronomical Twilight 4:53 AM CST 7:26 PM CST
Moon 8:06 AM CST (3/4) 10:08 PM CST (3/4)
Length of Visible Light 12h 18m
Length of Day
11h 19m
Waxing Crescent, 15% of the Moon is Illuminated
Mar 4
Waxing Crescent
Mar 8
First Quarter
Mar 16
Full
Mar 23
Last Quarter
Mar 30
New

Hourly Weather History & Observations

Time (CST) Temp. Windchill Dew Point Humidity Pressure Visibility Wind Dir Wind Speed Gust Speed Precip Events Conditions
12:15 AM 7.2 °F -1.5 °F 3.7 °F 86% 30.25 in 1.2 mi SSW 4.6 mph - N/A Snow Light Snow
12:35 AM 7.2 °F -3.0 °F 3.6 °F 85% 30.25 in 2.0 mi South 5.8 mph - N/A   Overcast
12:55 AM 7.2 °F -5.4 °F 3.2 °F 84% 30.25 in 2.0 mi SSW 8.1 mph - N/A   Overcast
1:15 AM 6.8 °F -3.5 °F 3.0 °F 84% 30.25 in 4.0 mi SSW 5.8 mph - N/A Snow Light Snow
1:35 AM 6.8 °F -3.5 °F 3.0 °F 84% 30.24 in 1.8 mi SSW 5.8 mph - N/A   Overcast
1:55 AM 6.8 °F -3.5 °F 3.2 °F 85% 30.23 in 1.2 mi SW 5.8 mph - 0.01 in   Overcast
2:15 AM 6.8 °F -3.5 °F 3.2 °F 85% 30.22 in 1.8 mi SSW 5.8 mph - N/A Snow Light Snow
2:35 AM 6.6 °F -2.2 °F 3.0 °F 85% 30.22 in 3.0 mi SSW 4.6 mph - N/A   Overcast
2:55 AM 6.6 °F -3.7 °F 3.0 °F 85% 30.21 in 5.0 mi SSW 5.8 mph - N/A   Overcast
3:15 AM 6.8 °F -3.5 °F 3.2 °F 85% 30.20 in 10.0 mi SSW 5.8 mph - N/A Snow Light Snow
3:35 AM 6.8 °F -3.5 °F 3.2 °F 85% 30.20 in 10.0 mi SSW 5.8 mph - N/A Snow Light Snow
3:55 AM 6.8 °F -4.8 °F 3.2 °F 85% 30.20 in 10.0 mi SSW 6.9 mph - N/A Snow Light Snow
4:15 AM 6.8 °F -2.0 °F 3.2 °F 85% 30.18 in 10.0 mi South 4.6 mph - N/A Snow Light Snow
4:23 AM 6.8 °F -2.0 °F 3.2 °F 85% 30.19 in 7.0 mi SSW 4.6 mph - N/A Snow Light Snow
4:35 AM 6.8 °F -3.5 °F 3.2 °F 85% 30.19 in 7.0 mi South 5.8 mph - N/A Snow Light Snow
4:55 AM 6.8 °F -2.0 °F 3.2 °F 85% 30.18 in 10.0 mi South 4.6 mph - N/A Snow Light Snow
4:59 AM 6.8 °F -2.0 °F 3.2 °F 85% 30.18 in 10.0 mi SSW 4.6 mph - N/A Snow Light Snow
5:15 AM 6.8 °F -2.0 °F 3.4 °F 86% 30.19 in 4.0 mi SSW 4.6 mph - N/A Snow Light Snow
5:35 AM 6.8 °F -3.5 °F 3.2 °F 85% 30.19 in 4.0 mi South 5.8 mph - N/A Snow Light Snow
5:55 AM 6.8 °F - 3.2 °F 85% 30.19 in 4.0 mi Calm Calm - N/A Snow Light Snow
6:07 AM 6.8 °F - 3.2 °F 85% 30.18 in 2.5 mi Calm Calm - N/A Snow Light Snow
6:15 AM 6.8 °F -2.0 °F 3.2 °F 85% 30.18 in 2.0 mi SSW 4.6 mph - N/A Snow Light Snow
6:35 AM 6.8 °F -0.1 °F 3.6 °F 87% 30.18 in 1.8 mi SSW 3.5 mph - N/A Snow Light Snow
6:55 AM 6.8 °F -0.1 °F 3.2 °F 85% 30.18 in 1.5 mi SSW 3.5 mph - N/A Snow Light Snow
7:15 AM 7.2 °F -1.5 °F 3.4 °F 85% 30.18 in 3.0 mi SW 4.6 mph - N/A Snow Light Snow
7:35 AM 7.3 °F -1.3 °F 3.6 °F 85% 30.18 in 5.0 mi SW 4.6 mph - N/A Snow Light Snow
7:55 AM 7.7 °F 1.0 °F 3.7 °F 84% 30.19 in 2.5 mi WSW 3.5 mph - N/A Snow Light Snow
8:15 AM 8.1 °F 1.4 °F 3.2 °F 81% 30.18 in 1.8 mi WSW 3.5 mph - N/A Snow Light Snow
8:35 AM 8.6 °F - 3.9 °F 81% 30.18 in 1.2 mi Calm Calm - N/A Snow Light Snow
8:55 AM 8.6 °F - 3.0 °F 78% 30.17 in 1.5 mi Calm Calm - N/A Snow Light Snow
9:15 AM 9.3 °F 2.8 °F 3.0 °F 76% 30.17 in 3.0 mi SW 3.5 mph - N/A Snow Light Snow
9:35 AM 9.7 °F 1.4 °F 3.0 °F 74% 30.18 in 5.0 mi West 4.6 mph - N/A Snow Light Snow
9:55 AM 9.9 °F 3.4 °F 3.2 °F 74% 30.18 in 4.0 mi West 3.5 mph - N/A Snow Light Snow
10:15 AM 10.0 °F 0.4 °F 3.2 °F 74% 30.17 in 4.0 mi WSW 5.8 mph - N/A Snow Light Snow
10:35 AM 10.4 °F - 3.4 °F 73% 30.17 in 4.0 mi Calm Calm - N/A Snow Light Snow
10:55 AM 10.9 °F - 2.7 °F 69% 30.17 in 3.0 mi Calm Calm - N/A   Overcast
11:15 AM 11.3 °F - 2.7 °F 68% 30.16 in 5.0 mi Calm Calm - N/A   Overcast
11:35 AM 11.5 °F - 3.2 °F 69% 30.17 in 4.0 mi Calm Calm - N/A Snow Light Snow
11:55 AM 12.0 °F - 4.1 °F 71% 30.17 in 7.0 mi Calm Calm - N/A Snow Light Snow
12:15 PM 12.4 °F - 3.7 °F 68% 30.17 in 10.0 mi Calm Calm - N/A   Overcast
12:35 PM 13.5 °F - 4.1 °F 66% 30.17 in 10.0 mi Calm Calm - N/A   Overcast
12:55 PM 13.5 °F - 4.3 °F 67% 30.17 in 10.0 mi Calm Calm - N/A   Overcast
1:15 PM 13.6 °F - 3.7 °F 65% 30.16 in 10.0 mi Calm Calm - N/A   Overcast
1:35 PM 14.4 °F - 4.3 °F 64% 30.16 in 10.0 mi Calm Calm - N/A   Overcast
1:55 PM 14.9 °F - 4.1 °F 62% 30.14 in 10.0 mi Calm Calm - N/A   Overcast
2:15 PM 14.9 °F - 4.1 °F 62% 30.15 in 10.0 mi Calm Calm - N/A   Overcast
2:35 PM 14.7 °F - 4.1 °F 63% 30.16 in 10.0 mi Calm Calm - N/A   Overcast
2:55 PM 15.1 °F - 4.1 °F 62% 30.17 in 10.0 mi Calm Calm - N/A   Overcast
3:15 PM 15.4 °F 9.8 °F 4.6 °F 62% 30.16 in 10.0 mi East 3.5 mph - N/A   Overcast
3:35 PM 15.8 °F - 3.6 °F 59% 30.16 in 10.0 mi Calm Calm - N/A   Overcast
3:55 PM 15.8 °F 10.2 °F 3.7 °F 59% 30.16 in 10.0 mi NNW 3.5 mph - N/A   Overcast
4:15 PM 15.8 °F - 3.9 °F 60% 30.16 in 10.0 mi Calm Calm - N/A   Overcast
4:35 PM 15.8 °F - 4.1 °F 60% 30.16 in 10.0 mi Calm Calm - N/A   Overcast
4:55 PM 15.4 °F - 4.1 °F 61% 30.16 in 10.0 mi Calm Calm - N/A   Overcast
5:15 PM 15.6 °F - 4.1 °F 60% 30.18 in 10.0 mi Calm Calm - N/A   Overcast
5:35 PM 15.4 °F - 4.1 °F 61% 30.18 in 10.0 mi Calm Calm - N/A   Overcast
5:55 PM 14.9 °F - 3.9 °F 62% 30.18 in 10.0 mi Calm Calm - N/A   Overcast
6:15 PM 14.0 °F - 4.1 °F 65% 30.18 in 10.0 mi Calm Calm - N/A   Scattered Clouds
6:35 PM 10.0 °F - 3.7 °F 76% 30.19 in 10.0 mi Calm Calm - N/A   Clear
6:55 PM 8.4 °F - 3.9 °F 82% 30.19 in 10.0 mi Calm Calm - N/A   Clear
7:15 PM 5.2 °F - 0.7 °F 82% 30.20 in 10.0 mi Calm Calm - N/A   Clear
7:35 PM 4.8 °F - 1.0 °F 84% 30.21 in 10.0 mi Calm Calm - N/A   Clear
7:55 PM 4.1 °F - 1.4 °F 89% 30.22 in 10.0 mi Calm Calm - N/A   Clear
8:15 PM 4.5 °F - 1.9 °F 89% 30.23 in 10.0 mi Calm Calm - N/A   Clear
8:35 PM 4.3 °F - 1.6 °F 89% 30.23 in 10.0 mi Calm Calm - N/A   Clear
8:55 PM 3.7 °F - 0.3 °F 86% 30.23 in 10.0 mi Calm Calm - N/A   Clear
9:15 PM 4.8 °F - 1.6 °F 86% 30.24 in 10.0 mi Calm Calm - N/A   Clear
9:35 PM 4.6 °F - 1.2 °F 86% 30.25 in 10.0 mi Calm Calm - N/A   Clear
9:55 PM 5.2 °F - 1.0 °F 83% 30.25 in 10.0 mi Calm Calm - N/A   Clear
10:15 PM 4.8 °F - 1.0 °F 84% 30.25 in 10.0 mi Calm Calm - N/A   Clear
10:35 PM 5.5 °F - 1.8 °F 84% 30.27 in 10.0 mi Calm Calm - N/A   Clear
10:55 PM 4.8 °F - 1.0 °F 84% 30.27 in 10.0 mi Calm Calm - N/A   Clear
11:15 PM 3.9 °F - 0.3 °F 85% 30.26 in 10.0 mi Calm Calm - N/A   Clear
11:35 PM 3.7 °F - -0.2 °F 84% 30.26 in 10.0 mi Calm Calm - N/A   Clear
11:55 PM 3.6 °F - -0.2 °F 84% 30.25 in 7.0 mi Calm Calm - N/A   Clear